Location: Nairn
(57.5833°N, 3.8667°W)
Time: 01:51:34
(UTC+00:00)

Okean 1-7 Rocket - Pass Details

Date: 07 August 2020
Orbit: 617 x 648 km, 82.5° (Epoch: 19 September)

Event Time Altitude Azimuth Distance (km) Brightness Sun altitude
Rises 02:22:23 0° 348° (NNW) 2,908 7.8 -12.0°
Reaches altitude 10° 02:24:38 10° 350° (N) 1,999 7.0 -11.8°
Maximum altitude 02:29:04 70° 75° (ENE) 666 3.9 -11.5°
Drops below altitude 10° 02:33:28 10° 159° (SSE) 1,995 5.8 -11.2°
Enters shadow 02:35:03 - 162° (SSE) 2,635 6.4 -11.1°
